DECAYED

OBJECT X, 62398 (Decayed)

Orbit data source: Space-Track

You're viewing an Uncataloged Satellite

Recently launched and/or uncataloged satellites may have evolving metadata. Metadata may include but not limited to: Owner, Maufacturer, Bus, Motor, and Mission.

OBJECT X, 62398 was a satellite in LEO that was launched on Sat, 21 Dec 2024 UTC via an FALCON 9 launch vehicle from the Air Force Western Test Range (AFWTR). Unknown objects in Earth's orbit typically refer to objects detected orbiting the Earth but have not yet been identified or cataloged. These objects could be anything from previously untracked satellites, spent rocket stages, debris from satellite collisions, or even natural meteoroids temporarily captured by Earth's gravity. This object's orbit decayed before it could be identified.

Not visible in the next 10 days
Identifier
62398, 2024-247X
Orbit
Decayed
Country
Flag of TBDTBD
Related business
None
Manufacturer
Unknown
Mission
Decayed Commercial Communications
Bus & Motor
Unknown
Mass
Unknown
Launch date (UTC)
2024-12-21 (1 year ago)
Launch vehicle
FALCON 9
Launch site
Air Force Western Test Range (AFWTR)
Object type
Unknown
Shape & HBR
Box, 0.0 m
Radar Cross Section
0.004 m², Medium (>0.1 m² and < 1m²)

Expand to show TLE details & history
Last TLE update: 3 months ago

TLE from 3 months ago
0 OBJECT X
1 62398U 24247X   26073.16816966  .13173731  10423-4  12170-2 0  9991
2 62398  44.9756  24.6545 0005579 218.4439 141.6088 16.37774077 69224
Epoch: 2026-03-14T04:02Z
TLE epoch observation values (Epoch: 2026-03-14T04:02:09.858Z)
Latitude
-0.00008°
Longitude
152.32013°
Altitude
174.591 km
Speed
7.802 km/s
True Right ascension
01h 38m 37s
True Declination
0° 00' 00"
Sunlit
Object was in daylight at epoch
Visualization orbit readout
Latitude
Unknown
Longitude
Unknown
Altitude
Unknown
Speed
Unknown
Apparent Right ascension
Unknown
Apparent Declination
Unknown
Sunlit
N/A
Visualization observer readout
Local Sidereal Time
10:19:03
Azimuth
Unknown
Elevation
Unknown
Doppler factor
Unknown
Orbital elements
Apogee altitude
177.075 km
Perigee altitude
169.765 km
Semi-major axis
6,551.557 km
Eccentricity
0.00056
Inclination
44.9756°
RAAN
24.6545°
Arg. of periapsis
218.4439°
True anomaly
141.64848°
Mean anomaly
141.6088°
Eccentric anomaly
141.62864°
Mean motion
4.09286 °/min
Orbital period
87.96 mins
BSTAR
0.001217
Loading maneuver chart data...
Computing Atmospheric mass density...
Loading historical data...
Loading historical data...
Loading historical data...
Loading historical data...
Loading historical data...
Loading historical data...
Loading historical data...

Documentation

Showing up to 5 results
|